User: anonymous   Login
Location: Vancouver
(49.2500°N, 123.1330°W)
Time: 12:14:15
(UTC-07:00)
Language:

Oscar 11 - Orbit

View from above orbital plane
View from above orbital plane
View from above satellite
View from above satellite

Ground track
Ground track

The orbit data is extracted from the following two-line orbital elements,

1 14781U 84021B   17177.74934183 +.00000071 +00000-0 +15005-4 0  9991
2 14781 097.6964 223.1126 0008998 158.9593 201.1993 14.82904360770764
Epoch (UTC): 26 June 2017 17:59:03
Eccentricity: 0.0008998
inclination: 97.6964°
perigee height: 614 km
apogee height: 626 km
right ascension of ascending node: 223.1126°
argument of perigee: 158.9593°
revolutions per day: 14.82904360
mean anomaly at epoch: 201.1993°
orbit number at epoch: 77076

The dashed part of the orbit path shows where the satellite is in the earth's shadow,  

DLR